GFSMA_prec_cthk_057.txt.gz
RH
61 60 60 59 59 61 62 60 59 63 54 46 40 33 35 33 30 29 32 32 35 36 33 31 31 31 32 33 32 29 27 26 25 23 21 21 22 22 23 23 23 22 20
68 66 65 59 61 65 66 63 63 58 57 49 42 39 36 30 30 32 32 38 37 39 40 38 37 39 39 38 36 34 31 29 28 26 25 26 27 26 26 26 25 25 24
77 72 67 64 67 68 69 68 61 60 56 50 48 42 32 34 33 35 42 37 41 43 46 49 48 48 46 43 39 38 34 30 29 30 29 30 31 30 31 31 29 27 24
79 76 72 72 75 74 73 67 64 60 55 53 49 40 37 34 39 42 39 39 41 42 44 48 52 56 54 50 48 45 41 34 34 33 34 34 35 35 35 34 32 29 28
80 79 77 75 78 80 79 76 74 73 61 52 50 46 39 38 43 45 38 40 42 44 47 53 55 59 61 58 57 51 45 42 40 40 38 38 39 39 39 38 36 34 32
83 80 79 75 78 82 83 80 79 78 71 58 55 55 52 50 49 39 42 44 49 50 55 64 67 65 63 61 56 48 48 48 48 48 48 45 43 43 42 41 38 36 35
84 85 80 77 77 83 81 80 81 81 71 64 62 58 58 55 51 49 50 57 56 57 65 70 70 70 70 69 60 51 53 53 55 57 57 55 50 47 45 43 41 40 38
84 87 78 80 81 81 81 81 78 75 64 57 53 52 54 54 60 64 61 65 68 67 70 72 75 77 76 75 61 59 62 57 58 60 64 62 56 51 48 46 45 43 41
87 84 82 85 85 86 85 84 80 70 67 59 55 55 60 66 71 68 72 72 75 76 77 79 80 75 73 71 63 63 59 61 59 62 64 64 65 59 56 55 51 48 46
90 87 87 83 90 92 91 85 76 69 65 59 57 65 74 77 79 80 82 93 83 78 81 70 65 65 68 67 62 61 61 63 65 62 66 66 69 65 62 60 57 54 54
92 91 88 89 94 91 91 80 74 70 63 60 62 74 81 83 87 90 92 86 78 77 78 73 69 62 65 63 62 63 68 72 68 62 68 69 67 66 65 62 60 62 63
88 88 89 91 91 90 81 77 75 70 65 73 78 81 88 94 97 96 94 90 88 75 73 68 73 67 64 62 63 67 66 71 68 68 71 68 65 62 62 64 65 69 68
76 78 80 83 82 76 73 79 77 67 64 69 76 79 88 96 99 98 95 88 88 76 78 79 67 63 62 68 66 65 68 68 68 72 68 66 66 65 62 61 61 65 65
73 74 75 76 74 76 77 79 76 71 66 70 75 79 87 99 96 97 96 86 89 72 72 65 64 66 62 61 60 60 66 68 73 74 70 67 64 59 58 57 56 56 56
66 67 65 68 70 69 72 70 71 68 70 72 76 88 90 95 97 96 93 83 80 72 71 68 70 60 66 68 68 63 68 70 72 69 70 65 57 55 53 53 53 53 53
65 62 58 58 59 62 68 75 78 76 74 80 87 94 93 93 95 94 86 83 76 73 73 66 65 70 68 65 69 69 68 69 72 71 64 55 52 51 48 48 49 50 50
64 61 60 63 63 61 59 55 57 70 79 90 98 95 94 94 93 91 82 78 71 72 76 67 67 71 71 70 68 69 72 70 70 59 50 48 46 45 44 44 44 45 45
70 68 66 68 70 71 75 78 75 67 78 95 92 91 95 96 96 90 84 76 75 74 74 68 70 66 71 69 67 71 74 70 55 48 45 44 44 43 44 44 41 40 39
68 73 70 70 73 77 84 83 90 94 91 93 95 94 94 96 95 95 90 85 79 73 68 72 71 66 68 72 68 70 70 52 45 44 46 47 46 48 49 48 47 44 41
71 75 72 81 78 77 82 78 79 93 92 88 96 94 93 95 98 91 91 85 79 74 76 67 76 63 71 67 66 68 58 44 44 47 48 50 54 54 54 53 50 45 39
52 57 75 78 78 81 82 81 80 87 93 96 95 92 97 94 92 91 89 82 82 77 75 66 69 68 68 69 68 56 46 43 48 49 53 57 58 59 56 53 48 42 36
44 52 57 67 81 86 83 88 89 93 95 95 90 93 95 91 92 89 87 85 80 75 73 66 70 69 70 67 58 49 45 46 50 57 60 58 60 60 56 51 45 38 34
43 49 56 63 73 84 85 90 95 96 89 89 91 93 92 90 91 87 83 90 82 75 65 69 69 72 69 61 52 49 48 50 59 63 58 56 63 58 54 49 43 36 34
47 50 56 63 70 77 86 92 93 91 90 88 92 91 95 96 98 90 89 80 75 71 70 72 73 71 64 58 53 50 52 64 64 64 63 62 64 56 53 49 42 37 33
49 55 60 64 69 75 82 87 89 87 88 87 91 98 98 98 93 85 78 77 75 73 73 76 75 67 63 57 54 56 67 69 63 65 71 68 62 56 49 47 44 36 34
55 54 55 58 62 67 72 75 79 82 84 90 93 92 97 95 81 79 80 80 81 80 79 73 68 64 60 56 62 73 74 66 66 74 78 66 64 64 54 49 45 40 34

GFSMA_prec_cthk_060.txt.gz
RH
69 65 61 65 65 64 59 57 56 56 60 57 46 44 45 43 39 44 37 38 36 35 34 34 31 30 29 33 33 31 29 27 25 23 21 21 22 22 21 21 21 21 22
70 69 62 65 64 62 63 58 59 64 63 58 51 50 46 42 40 46 41 40 40 42 47 45 41 41 40 38 36 36 33 32 29 26 26 26 25 25 25 24 25 25 26
74 69 67 67 64 61 63 64 63 65 63 57 54 50 44 39 43 41 42 46 41 49 56 54 49 47 48 45 43 40 42 41 34 31 29 28 28 29 30 30 30 30 29
75 70 65 68 66 66 65 66 67 65 62 56 55 53 51 47 44 39 41 46 52 54 45 48 50 55 58 53 49 48 50 49 45 38 33 31 31 32 33 33 33 33 33
82 79 72 71 70 67 69 68 65 63 61 57 56 54 50 44 37 36 38 44 53 52 49 48 49 56 66 63 59 58 57 51 45 43 38 38 37 37 38 38 38 36 34
84 84 82 78 76 77 74 71 69 68 66 63 57 54 51 43 41 41 43 51 51 46 55 51 52 62 64 65 66 64 63 58 51 50 44 44 44 42 42 41 40 38 36
89 91 89 80 78 80 80 78 79 79 76 72 63 58 59 52 51 51 55 59 56 60 57 56 57 68 72 68 69 69 68 68 60 57 49 48 48 49 48 46 46 42 40
89 89 88 83 78 83 82 82 82 84 82 79 75 70 65 64 58 62 68 68 63 60 64 63 66 70 74 80 74 66 58 55 56 55 54 51 53 51 50 51 54 48 44
88 89 90 88 80 82 84 82 82 85 89 86 77 71 68 61 64 65 70 67 65 64 69 76 72 71 65 61 61 60 57 51 51 55 56 58 58 56 57 59 58 51 49
87 90 91 92 81 81 84 84 88 88 89 89 84 71 62 59 64 75 70 73 72 74 80 81 71 65 62 65 60 60 59 57 56 53 54 57 59 57 62 64 61 58 56
84 86 90 92 82 87 88 90 88 88 86 82 78 76 64 60 65 75 85 82 84 92 91 84 76 70 65 65 64 58 61 55 57 59 57 58 59 58 60 62 63 61 62
88 88 89 92 85 87 84 84 86 87 85 78 75 71 64 60 64 70 83 93 97 96 89 91 76 73 72 71 62 58 57 60 57 58 60 61 58 62 66 63 63 65 64
91 85 82 87 88 86 85 89 95 94 86 76 72 70 66 65 72 70 79 90 95 98 95 87 87 75 67 60 59 57 59 57 58 57 55 56 58 64 64 65 64 59 59
74 73 74 79 81 82 86 87 87 86 79 73 73 72 66 68 77 76 83 88 95 98 97 85 77 70 71 64 65 58 55 57 53 56 56 59 60 61 63 65 59 56 55
63 65 65 70 74 75 77 77 77 72 76 79 81 74 74 65 70 78 83 91 97 98 92 84 76 71 69 69 59 57 61 58 57 56 59 57 58 59 59 53 51 49 49
56 55 59 64 68 69 69 71 70 74 78 77 75 75 73 72 75 83 91 93 95 98 90 85 77 70 68 69 65 67 64 63 59 59 57 60 59 55 44 42 44 44 44
58 55 56 60 61 62 64 66 63 66 68 71 78 82 82 76 77 93 96 95 95 98 93 88 83 76 73 74 65 67 67 59 61 62 59 60 55 41 38 40 44 44 45
63 65 69 71 69 68 68 71 72 75 78 78 76 70 68 79 88 99 98 96 99 98 94 92 89 85 80 76 70 66 71 64 65 64 60 52 42 36 39 45 47 51 50
64 69 68 68 70 72 73 73 75 80 82 81 81 82 87 88 96 98 94 94 98 96 98 95 92 89 82 79 79 71 72 71 66 61 56 45 37 40 45 51 52 58 57
55 57 62 63 64 77 73 74 74 73 74 79 79 78 90 94 93 94 94 93 95 97 93 99 95 90 89 87 81 67 67 69 65 59 45 41 41 47 50 58 63 62 62
52 52 52 49 51 57 68 76 85 80 78 79 81 78 79 91 95 97 96 93 92 99 95 98 91 89 81 82 78 74 67 67 60 49 45 44 50 53 61 68 69 68 63
48 52 53 57 53 52 52 61 68 73 84 81 83 87 93 94 95 97 88 91 89 98 92 90 88 85 97 88 79 73 67 62 54 50 51 59 59 62 71 72 71 66 60
51 47 47 50 52 56 61 67 74 82 90 91 95 94 93 92 91 90 90 92 89 92 95 97 96 96 82 78 76 72 64 61 56 60 64 64 70 75 74 74 71 63 57
60 60 57 55 55 59 65 69 75 84 90 94 92 94 94 93 90 89 91 94 91 91 99 98 95 82 76 76 79 71 66 60 60 65 70 74 77 74 76 77 68 62 56
62 63 68 64 58 54 61 70 77 81 84 87 90 90 89 89 88 92 89 90 98 98 99 95 93 79 80 81 76 69 65 68 73 79 78 78 80 78 77 74 72 66 62
71 69 70 72 68 60 59 59 65 72 80 86 87 86 89 92 89 91 97 94 94 98 98 93 84 80 79 75 67 64 68 74 82 83 85 83 85 85 74 73 71 65 68

GFSMA_prec_cthk_063.txt.gz
RH
84 68 67 78 66 63 57 55 61 57 55 55 58 58 52 52 49 47 41 39 37 33 34 31 26 26 25 25 27 27 26 25 23 22 20 20 21 22 22 22 21 21 21
80 77 74 82 68 63 63 64 70 60 59 64 62 59 53 51 53 50 44 43 44 41 37 37 37 38 36 34 34 35 34 33 30 30 28 25 25 26 25 25 25 24 24
82 82 85 74 71 71 70 72 66 65 65 66 63 58 55 56 53 52 46 45 45 41 44 52 50 50 47 44 40 40 41 40 41 41 36 32 30 28 27 28 28 26 26
90 84 83 83 77 74 75 73 67 68 72 66 64 61 59 55 49 49 52 50 44 43 46 51 55 49 49 52 50 47 47 47 49 45 41 38 34 32 32 33 31 31 32
89 88 84 82 75 71 74 76 73 75 75 69 63 61 59 56 49 49 50 50 46 48 49 53 50 48 55 56 57 57 55 53 53 50 49 47 40 37 38 37 35 36 35
93 88 82 81 75 72 75 73 75 76 74 69 64 60 61 56 55 49 47 46 41 45 56 65 49 47 52 56 62 62 64 65 63 58 57 54 48 41 42 41 42 40 40
93 88 84 77 76 78 77 76 77 74 71 69 67 63 59 56 51 46 43 42 45 49 59 60 59 57 56 59 63 66 68 66 62 60 54 53 45 47 46 48 46 44 43
88 87 85 82 86 84 84 82 82 79 78 75 71 71 63 57 55 52 49 50 54 65 70 65 61 58 65 70 68 62 55 56 57 57 52 50 49 50 50 51 50 45 50
95 87 86 87 85 89 89 88 86 85 85 81 76 81 80 73 75 70 60 59 68 75 74 65 62 63 68 71 67 63 60 58 55 52 49 50 48 49 49 51 52 50 52
89 87 83 87 90 87 90 92 87 83 85 85 84 79 76 83 81 85 73 71 72 73 70 67 69 71 67 69 68 65 62 62 56 52 47 46 47 48 48 51 53 54 56
92 92 89 92 92 89 89 88 87 85 84 88 91 88 83 74 66 71 76 72 71 74 73 76 79 91 91 83 72 68 70 61 57 52 52 46 45 48 47 48 51 54 57
91 93 97 92 91 90 89 84 89 88 85 84 81 86 84 82 72 65 62 66 65 65 72 81 89 93 94 89 79 72 61 56 57 54 52 48 48 49 46 48 51 55 56
93 93 94 90 89 92 92 92 87 87 85 83 80 82 85 85 79 67 63 58 64 61 66 75 85 88 91 90 81 73 69 59 59 55 48 47 46 47 47 50 53 56 55
90 89 86 84 83 87 91 95 91 84 82 80 83 81 85 87 87 78 74 72 70 72 73 73 80 87 92 89 85 78 71 66 62 54 53 55 52 50 51 52 53 54 54
80 76 71 71 75 77 77 80 82 80 79 80 84 84 84 85 86 84 81 85 72 74 70 74 81 87 89 89 83 76 76 68 67 67 60 55 52 51 53 52 52 52 51
69 67 64 64 68 70 70 69 69 71 74 77 79 78 77 77 81 84 85 82 76 73 72 82 89 92 91 92 88 82 85 71 71 62 61 63 59 53 54 53 52 46 37
56 58 55 57 56 55 58 58 59 64 67 70 69 69 69 72 79 83 87 90 87 82 82 90 98 97 94 94 92 94 88 79 72 69 70 62 64 61 54 51 44 36 31
60 64 66 68 67 65 61 60 61 63 68 68 67 73 75 80 80 81 85 84 86 90 91 99 95 98 96 97 96 94 92 85 81 81 74 64 58 56 51 44 38 33 33
62 62 65 67 68 70 70 72 73 76 76 72 73 76 79 83 84 84 84 82 89 93 97 97 98 98 98 99 96 94 97 91 87 83 75 72 62 57 49 41 38 37 41
51 52 55 56 59 68 68 63 66 71 81 80 82 83 82 81 80 83 86 79 83 91 95 98 98 98 98 98 99 98 97 95 96 91 81 70 59 53 47 42 42 43 51
48 48 52 51 52 52 52 52 52 55 67 77 79 81 84 83 83 80 82 88 91 91 98 96 97 98 95 99 98 98 93 96 96 95 83 72 61 56 52 47 48 57 60
51 52 51 48 47 45 43 46 49 53 55 56 58 61 65 73 85 89 90 95 99 98 98 95 97 97 94 95 99 98 99 99 97 89 72 68 65 59 56 55 63 66 76
56 52 50 52 50 50 47 49 52 56 57 59 65 68 73 77 81 91 97 97 96 95 94 91 92 94 92 95 98 99 98 98 96 86 77 70 68 62 64 72 73 80 77
52 56 58 58 59 59 61 60 60 62 63 66 74 75 77 79 84 94 98 94 89 91 89 90 93 98 91 98 99 98 97 96 92 86 77 71 70 75 80 77 81 79 81
58 58 60 63 64 67 72 70 73 72 69 67 66 69 75 79 83 86 90 92 92 87 95 95 85 90 99 98 98 97 96 89 83 79 77 79 82 81 82 81 81 84 82
61 64 64 63 67 73 76 78 81 80 81 77 69 69 69 72 73 76 80 82 82 84 81 86 87 99 98 94 92 89 84 78 81 85 84 88 91 90 80 83 85 85 83

GFSMA_prec_cthk_069.txt.gz
RH
67 59 59 47 51 46 43 43 44 48 54 51 53 54 52 48 45 38 30 32 34 29 25 24 21 22 21 21 20 21 23 23 23 22 24 25 25 24 24 24 24 22 21
63 65 62 51 58 50 49 46 45 50 56 48 52 59 54 49 49 42 34 35 38 31 28 27 27 25 27 25 28 30 28 28 29 30 32 33 30 31 30 27 25 25 23
75 72 64 57 61 56 56 51 48 48 51 49 54 56 55 55 53 46 38 36 37 33 31 32 34 30 34 35 36 35 36 35 37 39 38 37 38 37 35 34 31 28 26
83 78 74 58 60 59 57 56 55 53 54 52 59 61 67 60 57 50 46 41 41 40 41 41 41 39 44 47 42 43 40 44 47 45 46 45 45 44 43 42 40 34 32
88 86 79 72 69 68 69 67 61 60 58 59 64 64 65 63 59 52 50 49 48 44 43 44 44 43 48 50 51 49 43 47 47 49 53 52 50 48 47 46 43 37 36
92 89 84 78 79 73 72 73 70 70 60 64 66 65 65 66 63 54 52 51 50 47 44 44 44 44 49 56 57 55 48 52 52 59 55 52 51 48 48 46 45 42 44
88 92 86 86 85 87 75 78 73 73 65 70 73 71 69 68 66 63 56 54 51 49 46 45 46 47 50 55 59 53 52 55 57 59 55 52 53 54 53 52 49 47 48
91 93 89 92 92 94 93 89 82 75 74 76 77 78 73 74 68 64 62 61 56 51 47 48 48 49 52 58 61 59 55 56 56 62 57 61 60 55 55 54 51 47 45
95 97 92 92 93 93 96 96 88 77 76 79 79 84 81 76 72 69 63 59 56 54 55 51 46 48 55 59 63 63 64 62 58 56 56 63 65 65 59 53 51 46 44
96 96 94 90 95 95 93 92 87 80 76 77 82 85 81 78 74 70 71 67 61 58 56 54 48 51 60 64 70 69 63 59 62 68 78 74 71 65 61 56 52 49 45
88 89 92 91 91 90 92 89 84 80 77 75 82 82 79 77 77 82 81 81 81 75 70 65 63 64 64 67 66 61 56 57 67 73 80 81 76 71 61 66 61 54 50
88 87 88 90 86 85 79 73 71 75 76 81 85 82 81 80 80 83 83 82 81 79 79 75 70 67 65 62 59 57 56 57 61 69 73 78 80 76 70 71 63 58 57
84 81 81 82 82 82 79 78 77 79 82 84 90 90 89 88 84 87 85 82 85 84 78 72 67 67 65 63 61 59 61 68 71 71 75 77 82 83 81 73 72 66 61
78 81 83 82 85 82 84 82 82 87 86 86 90 98 96 94 92 90 88 86 87 86 86 85 84 83 80 81 81 80 79 77 79 80 83 84 88 89 89 80 78 77 68
77 83 85 86 87 87 90 87 86 88 89 90 89 93 93 97 94 92 90 89 87 85 82 80 82 84 88 89 89 88 85 85 87 92 93 93 95 96 93 90 86 85 84
66 76 82 82 84 86 85 80 77 79 81 86 88 88 89 89 92 91 91 88 83 81 77 79 78 79 81 79 84 88 90 90 86 87 93 97 95 97 97 93 93 95 92
58 61 65 66 69 68 67 67 67 70 73 77 79 80 80 80 82 85 82 79 77 77 75 71 74 78 80 81 86 88 88 89 86 89 93 96 98 98 98 98 98 97 95
57 61 62 60 59 58 60 62 66 65 63 64 63 68 64 68 70 70 71 73 74 73 76 77 80 84 84 87 87 88 89 90 90 92 96 96 97 97 96 99 98 98 97
48 51 54 56 62 63 64 63 67 68 68 74 75 71 71 77 76 77 78 78 79 81 84 86 86 89 89 87 90 95 94 92 94 94 97 99 98 98 98 99 98 98 98
51 52 54 56 56 57 59 58 63 59 59 66 71 66 60 60 58 59 67 80 83 84 84 84 83 83 85 83 88 91 95 96 95 98 98 97 98 98 98 98 98 98 98
51 52 54 55 58 59 58 56 53 56 57 56 55 55 54 54 56 58 61 58 62 65 72 74 78 79 80 80 85 95 94 97 96 96 98 98 97 97 99 98 99 99 98
56 58 58 58 59 58 56 62 63 62 62 61 58 60 64 67 67 69 70 73 76 77 76 82 86 88 84 79 85 92 91 99 97 97 97 94 99 99 96 98 96 98 98
59 58 60 63 62 63 60 63 65 67 66 64 65 68 69 70 73 76 79 85 85 85 84 84 84 83 83 81 83 78 79 94 93 91 84 84 82 97 98 97 96 95 97
64 63 63 65 68 65 67 67 68 71 72 72 75 74 72 74 78 82 87 87 88 89 91 90 90 81 84 74 90 77 90 87 89 90 97 93 94 90 87 89 94 95 90
69 71 75 76 73 74 74 74 72 75 80 82 83 83 86 87 89 94 96 94 93 91 90 94 93 92 93 91 79 85 80 90 99 88 85 95 93 92 92 95 96 94 94
76 78 79 83 84 83 83 84 83 83 84 85 87 88 88 89 90 91 97 97 99 97 92 93 92 99 94 83 99 89 97 90 93 95 97 97 94 95 93 94 97 96 95